contact:dominique.lefevre@mio.osupytheas.fr, maurice.libes@osupytheas.fr, didier.mallarino@osupytheas.fr
Project:EMSO http://www.emso-fr.org/EMSO-France
Depth: 2436.0 m
Title:EMSO Ligure Ouest : Data MII capteur AQUADOPP
Date,Latitude,Longitude,X_East,Y_North,Z_Up,Amplitude_X,Amplitude_Y,Amplitude_Z,Batterie,SoundSpeed,Heading,Pitch,Roll,Pressure,TIS,Speed,Direction
, degrees North, degrees East, m.s-1, m.s-1,m.s-1, 1, 1, 1, Volt, m.s-1, degree, degree, degree, dbar, degree_C, m.s-1, degree
2023-03-17T00:04:03,42.805,6.029,-0.052,0.001,-0.047,101.0,101.0,102.0,13.4,1505.2,339.9,-0.8,1.8,2471.375,13.28,0.052,271.1
2023-03-17T00:07:03,42.805,6.029,-0.032,0.016,0.012,101.0,102.0,102.0,13.4,1505.2,327.4,-0.8,1.9,2471.358,13.28,0.035,296.6
2023-03-17T00:10:03,42.805,6.029,-0.029,0.006,-0.048,102.0,104.0,101.0,13.4,1505.2,336.4,-0.8,1.8,2471.382,13.28,0.029,281.7
2023-03-17T00:13:03,42.805,6.029,-0.044,0.021,-0.03,102.0,103.0,102.0,13.4,1505.2,322.1,-0.8,1.8,2471.383,13.29,0.048,295.5
2023-03-17T00:16:03,42.805,6.029,-0.066,0.013,-0.012,102.0,101.0,102.0,13.4,1505.2,315.5,-0.7,1.8,2471.351,13.29,0.067,281.1
2023-03-17T00:19:03,42.805,6.029,-0.016,-0.026,-0.044,102.0,100.0,102.0,13.4,1505.2,315.5,-0.8,1.8,2471.357,13.29,0.03,211.6
2023-03-17T00:22:03,42.805,6.029,-0.031,0.005,-0.045,102.0,100.0,102.0,13.4,1505.2,331.5,-0.8,1.8,2471.35,13.29,0.031,279.2
2023-03-17T00:25:03,42.805,6.029,-0.057,0.008,-0.004,103.0,101.0,101.0,13.3,1505.2,325.0,-0.8,1.8,2471.336,13.29,0.057,278.0
2023-03-17T00:28:03,42.805,6.029,-0.05,-0.002,-0.044,103.0,103.0,102.0,13.4,1505.2,316.7,-0.8,1.8,2471.356,13.29,0.05,267.7
2023-03-17T00:31:03,42.805,6.029,-0.034,0.04,-0.009,101.0,101.0,103.0,13.4,1505.2,324.8,-0.8,1.8,2471.353,13.29,0.052,319.6
2023-03-17T00:34:03,42.805,6.029,-0.041,0.014,0.003,101.0,100.0,102.0,13.4,1505.2,332.6,-0.7,1.8,2471.395,13.29,0.043,288.9
2023-03-17T00:37:03,42.805,6.029,-0.04,-0.003,-0.025,101.0,102.0,102.0,13.4,1505.2,326.5,-0.7,1.8,2471.373,13.29,0.04,265.7
2023-03-17T00:40:03,42.805,6.029,-0.038,-0.007,-0.044,102.0,101.0,102.0,13.4,1505.2,324.2,-0.8,1.8,2471.34,13.29,0.038,259.6
2023-03-17T00:43:03,42.805,6.029,-0.051,-0.014,-0.043,102.0,103.0,101.0,13.4,1505.2,324.8,-0.8,1.8,2471.392,13.29,0.052,254.7
2023-03-17T00:46:03,42.805,6.029,-0.042,-0.004,-0.055,103.0,101.0,103.0,13.3,1505.2,330.6,-0.8,1.8,2471.399,13.29,0.042,264.6
2023-03-17T00:49:03,42.805,6.029,-0.028,0.012,-0.022,102.0,101.0,101.0,13.4,1505.2,328.8,-0.8,1.8,2471.38,13.29,0.03,293.2
2023-03-17T00:52:03,42.805,6.029,-0.05,0.008,-0.033,101.0,101.0,102.0,13.4,1505.2,335.8,-0.8,1.8,2471.342,13.29,0.05,279.1
2023-03-17T00:55:03,42.805,6.029,-0.026,0.007,-0.007,101.0,102.0,102.0,13.4,1505.2,340.3,-0.8,1.8,2471.39,13.29,0.026,285.1
2023-03-17T00:58:03,42.805,6.029,-0.025,0.001,-0.025,101.0,100.0,103.0,13.4,1505.2,330.8,-0.8,1.8,2471.397,13.29,0.025,272.3
2023-03-17T01:04:03,42.805,6.029,0.008,0.012,-0.001,103.0,105.0,103.0,13.4,1505.2,339.1,-0.8,1.8,2471.412,13.28,0.014,33.7
2023-03-17T01:07:03,42.805,6.029,-0.061,0.006,-0.05,103.0,101.0,101.0,13.3,1505.2,324.6,-0.8,1.8,2471.435,13.28,0.061,275.6
2023-03-17T01:10:03,42.805,6.029,-0.033,0.014,-0.038,103.0,102.0,102.0,13.3,1505.2,330.6,-0.7,1.8,2471.433,13.28,0.035,293.0
2023-03-17T01:13:03,42.805,6.029,-0.044,-0.014,-0.036,101.0,103.0,101.0,13.4,1505.2,323.6,-0.8,1.8,2471.42,13.28,0.046,252.4
2023-03-17T01:16:03,42.805,6.029,-0.028,0.01,-0.012,102.0,101.0,102.0,13.3,1505.2,327.8,-0.8,1.8,2471.401,13.29,0.029,289.6
2023-03-17T01:19:03,42.805,6.029,-0.044,0.003,-0.054,101.0,101.0,101.0,13.4,1505.2,318.9,-0.8,1.8,2471.389,13.29,0.044,273.9
2023-03-17T01:22:03,42.805,6.029,-0.026,0.023,-0.015,103.0,100.0,101.0,13.3,1505.2,340.6,-0.8,1.8,2471.379,13.29,0.034,311.5
2023-03-17T01:25:03,42.805,6.029,-0.051,0.005,-0.021,101.0,103.0,102.0,13.3,1505.2,318.9,-0.8,1.8,2471.419,13.29,0.051,275.6
2023-03-17T01:28:03,42.805,6.029,-0.048,-0.01,-0.064,102.0,100.0,101.0,13.4,1505.2,322.9,-0.8,1.8,2471.37,13.29,0.049,258.2
2023-03-17T01:31:03,42.805,6.029,-0.041,-0.003,-0.021,103.0,102.0,101.0,13.4,1505.2,320.6,-0.8,1.8,2471.416,13.29,0.041,265.8
2023-03-17T01:34:03,42.805,6.029,-0.027,0.018,-0.008,100.0,102.0,102.0,13.3,1505.2,340.9,-0.7,1.8,2471.392,13.29,0.032,303.7
2023-03-17T01:37:03,42.805,6.029,-0.014,-0.009,-0.036,102.0,102.0,101.0,13.3,1505.2,333.0,-0.7,1.8,2471.415,13.29,0.016,237.3
2023-03-17T01:40:03,42.805,6.029,-0.021,-0.01,-0.049,102.0,100.0,103.0,13.3,1505.2,318.8,-0.8,1.8,2471.381,13.29,0.023,244.5
2023-03-17T01:43:03,42.805,6.029,-0.039,0.004,-0.046,103.0,102.0,101.0,13.4,1505.2,338.8,-0.8,1.8,2471.378,13.29,0.039,275.9
2023-03-17T01:46:03,42.805,6.029,-0.033,0.01,-0.03,102.0,102.0,102.0,13.4,1505.2,338.9,-0.8,1.8,2471.404,13.29,0.034,286.9
2023-03-17T01:49:03,42.805,6.029,-0.047,0.005,-0.034,102.0,99.0,102.0,13.4,1505.2,335.4,-0.7,1.9,2471.388,13.29,0.047,276.1
2023-03-17T01:52:03,42.805,6.029,-0.02,-0.009,-0.061,101.0,101.0,103.0,13.3,1505.2,315.6,-0.8,1.8,2471.389,13.29,0.021,245.8
2023-03-17T01:55:03,42.805,6.029,-0.058,-0.019,-0.051,102.0,102.0,102.0,13.4,1505.2,321.1,-0.8,1.8,2471.384,13.29,0.061,251.9
2023-03-17T01:58:03,42.805,6.029,-0.047,0.002,-0.019,101.0,101.0,102.0,13.4,1505.2,323.8,-0.8,1.8,2471.408,13.29,0.047,272.4
2023-03-17T02:04:03,42.805,6.029,-0.026,0.008,-0.027,102.0,102.0,101.0,13.4,1505.2,326.8,-0.7,1.8,2471.474,13.28,0.027,287.1
2023-03-17T02:07:03,42.805,6.029,-0.024,0.004,-0.061,102.0,101.0,102.0,13.4,1505.2,339.3,-0.8,1.8,2471.454,13.28,0.024,279.5
2023-03-17T02:10:03,42.805,6.029,-0.052,-0.01,-0.034,103.0,102.0,101.0,13.4,1505.2,319.9,-0.8,1.8,2471.432,13.28,0.052,259.1
2023-03-17T02:13:03,42.805,6.029,-0.028,-0.016,-0.04,102.0,102.0,102.0,13.4,1505.2,324.6,-0.7,1.8,2471.434,13.28,0.032,240.3
2023-03-17T02:16:03,42.805,6.029,-0.038,-0.007,-0.047,101.0,102.0,101.0,13.3,1505.2,331.1,-0.8,1.8,2471.461,13.29,0.038,259.6
2023-03-17T02:19:03,42.805,6.029,-0.032,0.008,-0.034,103.0,100.0,102.0,13.4,1505.2,334.8,-0.8,1.8,2471.431,13.29,0.032,284.0
2023-03-17T02:22:03,42.805,6.029,-0.053,0.011,-0.047,103.0,102.0,102.0,13.4,1505.2,333.0,-0.8,1.8,2471.436,13.29,0.054,281.7
2023-03-17T02:25:03,42.805,6.029,-0.054,0.002,-0.047,102.0,103.0,101.0,13.3,1505.2,328.3,-0.7,1.8,2471.414,13.29,0.054,272.1
2023-03-17T02:28:03,42.805,6.029,-0.046,-0.012,-0.044,102.0,102.0,102.0,13.3,1505.2,322.5,-0.8,1.8,2471.412,13.29,0.047,255.4
2023-03-17T02:31:03,42.805,6.029,-0.045,-0.027,-0.067,102.0,101.0,102.0,13.4,1505.2,319.9,-0.7,1.8,2471.453,13.29,0.052,239.0
2023-03-17T02:34:03,42.805,6.029,-0.037,0.011,-0.03,104.0,102.0,101.0,13.3,1505.2,329.8,-0.8,1.8,2471.445,13.29,0.038,286.6
2023-03-17T02:37:03,42.805,6.029,-0.04,-0.002,-0.022,102.0,101.0,102.0,13.3,1505.2,334.2,-0.7,1.8,2471.421,13.29,0.04,267.1
2023-03-17T02:40:03,42.805,6.029,-0.037,0.001,-0.02,101.0,102.0,101.0,13.3,1505.2,321.5,-0.8,1.8,2471.449,13.29,0.037,271.5
2023-03-17T02:43:03,42.805,6.029,-0.02,-0.021,-0.061,102.0,100.0,101.0,13.3,1505.2,321.7,-0.8,1.8,2471.475,13.29,0.028,223.6
2023-03-17T02:46:03,42.805,6.029,-0.037,0.018,-0.023,103.0,101.0,101.0,13.3,1505.2,333.9,-0.8,1.8,2471.401,13.29,0.041,295.9
2023-03-17T02:49:03,42.805,6.029,-0.027,-0.007,-0.035,103.0,103.0,101.0,13.4,1505.2,318.5,-0.8,1.8,2471.443,13.29,0.027,255.5
2023-03-17T02:52:03,42.805,6.029,-0.029,-0.001,-0.039,100.0,101.0,103.0,13.4,1505.2,323.6,-0.8,1.8,2471.443,13.29,0.029,268.0
2023-03-17T02:55:03,42.805,6.029,-0.019,0.019,-0.006,101.0,102.0,103.0,13.4,1505.2,322.2,-0.8,1.8,2471.442,13.29,0.026,315.0
2023-03-17T02:58:03,42.805,6.029,-0.044,-0.009,-0.042,103.0,101.0,102.0,13.4,1505.2,322.4,-0.8,1.8,2471.437,13.29,0.044,258.4
2023-03-17T03:04:03,42.805,6.029,-0.018,-0.004,-0.069,101.0,101.0,103.0,13.4,1505.2,335.8,-0.8,1.8,2471.476,13.28,0.018,257.5
2023-03-17T03:07:03,42.805,6.029,-0.031,-0.023,-0.06,104.0,101.0,101.0,13.4,1505.2,317.3,-0.8,1.8,2471.448,13.28,0.038,233.4
2023-03-17T03:10:03,42.805,6.029,-0.046,0.018,-0.014,104.0,101.0,101.0,13.4,1505.2,334.3,-0.8,1.8,2471.426,13.28,0.049,291.4
2023-03-17T03:13:03,42.805,6.029,-0.029,-0.018,-0.024,103.0,102.0,101.0,13.4,1505.2,321.6,-0.8,1.8,2471.474,13.28,0.034,238.2
2023-03-17T03:16:03,42.805,6.029,-0.036,0.002,-0.067,102.0,102.0,101.0,13.3,1505.2,336.8,-0.8,1.8,2471.484,13.28,0.036,273.2
2023-03-17T03:19:03,42.805,6.029,-0.015,-0.006,-0.006,101.0,103.0,101.0,13.4,1505.2,324.6,-0.8,1.8,2471.482,13.29,0.016,248.2
2023-03-17T03:22:03,42.805,6.029,-0.022,-0.006,-0.007,102.0,101.0,102.0,13.4,1505.2,324.1,-0.8,1.8,2471.459,13.29,0.022,254.7
2023-03-17T03:25:03,42.805,6.029,-0.062,-0.001,-0.038,102.0,101.0,102.0,13.4,1505.2,317.3,-0.7,1.8,2471.436,13.29,0.062,269.1
2023-03-17T03:28:03,42.805,6.029,-0.031,-0.003,-0.039,103.0,101.0,101.0,13.3,1505.2,322.9,-0.8,1.8,2471.464,13.29,0.031,264.5
2023-03-17T03:31:03,42.805,6.029,-0.044,-0.017,-0.06,102.0,102.0,102.0,13.4,1505.2,318.3,-0.7,1.8,2471.458,13.29,0.047,248.9
2023-03-17T03:34:03,42.805,6.029,-0.053,-0.003,-0.07,102.0,102.0,101.0,13.3,1505.2,319.0,-0.8,1.8,2471.452,13.29,0.053,266.8
2023-03-17T03:37:03,42.805,6.029,-0.03,-0.007,-0.022,100.0,103.0,100.0,13.4,1505.2,320.6,-0.8,1.8,2471.453,13.29,0.03,256.9
2023-03-17T03:40:03,42.805,6.029,-0.013,-0.026,-0.054,102.0,103.0,102.0,13.4,1505.2,324.2,-0.7,1.8,2471.421,13.29,0.029,206.6
2023-03-17T03:43:03,42.805,6.029,-0.024,0.002,-0.033,103.0,103.0,102.0,13.3,1505.2,321.7,-0.8,1.8,2471.445,13.29,0.024,274.8
2023-03-17T03:46:03,42.805,6.029,-0.04,-0.028,-0.03,101.0,103.0,102.0,13.4,1505.2,333.0,-0.8,1.8,2471.464,13.29,0.048,235.0
2023-03-17T03:49:03,42.805,6.029,-0.045,-0.008,-0.053,103.0,102.0,103.0,13.3,1505.2,316.8,-0.8,1.9,2471.461,13.29,0.045,259.9
2023-03-17T03:52:03,42.805,6.029,-0.027,-0.002,-0.045,102.0,102.0,101.0,13.4,1505.2,322.7,-0.7,1.8,2471.488,13.29,0.027,265.8
2023-03-17T03:55:03,42.805,6.029,-0.036,-0.01,-0.039,102.0,102.0,102.0,13.4,1505.2,336.6,-0.7,1.8,2471.464,13.29,0.037,254.5
2023-03-17T03:58:03,42.805,6.029,-0.039,-0.005,-0.044,103.0,101.0,101.0,13.3,1505.2,324.1,-0.8,1.8,2471.436,13.29,0.039,262.7
2023-03-17T04:04:03,42.805,6.029,-0.037,-0.012,-0.068,101.0,103.0,103.0,13.4,1505.2,326.5,-0.8,1.8,2471.479,13.28,0.038,252.0
2023-03-17T04:07:03,42.805,6.029,-0.036,0.004,-0.008,102.0,101.0,102.0,13.4,1505.2,322.7,-0.8,1.8,2471.491,13.28,0.036,276.3
2023-03-17T04:10:03,42.805,6.029,-0.034,-0.012,-0.047,103.0,104.0,102.0,13.3,1505.2,332.9,-0.8,1.8,2471.491,13.28,0.036,250.6
2023-03-17T04:13:03,42.805,6.029,-0.039,-0.004,-0.053,102.0,101.0,102.0,13.4,1505.2,330.6,-0.8,1.8,2471.459,13.28,0.039,264.1
2023-03-17T04:16:03,42.805,6.029,-0.02,-0.017,-0.033,104.0,101.0,102.0,13.4,1505.2,333.8,-0.8,1.8,2471.483,13.28,0.026,229.6
2023-03-17T04:19:03,42.805,6.029,-0.023,-0.022,-0.045,102.0,101.0,101.0,13.4,1505.2,331.5,-0.8,1.8,2471.472,13.28,0.031,226.3
2023-03-17T04:22:03,42.805,6.029,-0.036,0.006,-0.039,102.0,102.0,101.0,13.3,1505.2,331.5,-0.8,1.8,2471.438,13.28,0.036,279.5
2023-03-17T04:25:03,42.805,6.029,-0.038,-0.006,-0.032,102.0,103.0,103.0,13.4,1505.2,339.5,-0.8,1.8,2471.461,13.29,0.038,261.0
2023-03-17T04:28:03,42.805,6.029,-0.048,0.001,0.002,102.0,102.0,102.0,13.4,1505.2,334.4,-0.8,1.8,2471.497,13.29,0.048,271.2
2023-03-17T04:31:03,42.805,6.029,-0.044,-0.004,-0.031,102.0,102.0,101.0,13.3,1505.2,326.8,-0.8,1.8,2471.458,13.29,0.044,264.8
2023-03-17T04:34:03,42.805,6.029,-0.04,-0.01,-0.034,103.0,102.0,102.0,13.4,1505.2,333.8,-0.8,1.8,2471.481,13.29,0.041,256.0
2023-03-17T04:37:03,42.805,6.029,-0.046,0.0,-0.023,103.0,102.0,102.0,13.4,1505.2,325.3,-0.8,1.8,2471.446,13.29,0.046,270.0
2023-03-17T04:40:03,42.805,6.029,-0.046,0.0,-0.021,103.0,103.0,101.0,13.4,1505.2,320.6,-0.8,1.8,2471.464,13.29,0.046,270.0
2023-03-17T04:43:03,42.805,6.029,-0.035,-0.011,-0.047,102.0,102.0,102.0,13.4,1505.2,317.3,-0.8,1.8,2471.462,13.29,0.036,252.6
2023-03-17T04:46:03,42.805,6.029,-0.04,0.012,-0.035,102.0,102.0,102.0,13.3,1505.2,333.9,-0.7,1.8,2471.48,13.29,0.041,286.7
2023-03-17T04:49:03,42.805,6.029,-0.05,-0.005,-0.037,101.0,101.0,102.0,13.4,1505.2,322.7,-0.8,1.8,2471.497,13.29,0.05,264.3
2023-03-17T04:52:03,42.805,6.029,-0.043,-0.007,-0.048,101.0,103.0,103.0,13.3,1505.2,326.5,-0.8,1.8,2471.452,13.29,0.043,260.8
2023-03-17T04:55:03,42.805,6.029,-0.031,-0.013,-0.031,102.0,102.0,102.0,13.3,1505.2,327.7,-0.8,1.8,2471.467,13.29,0.033,247.3
2023-03-17T04:58:03,42.805,6.029,-0.056,-0.025,-0.045,104.0,100.0,102.0,13.4,1505.2,317.5,-0.8,1.8,2471.472,13.29,0.061,245.9
2023-03-17T05:04:03,42.805,6.029,-0.03,0.013,-0.045,101.0,104.0,101.0,13.4,1505.2,338.2,-0.8,1.8,2471.527,13.28,0.032,293.4
2023-03-17T05:07:03,42.805,6.029,-0.047,0.003,-0.024,102.0,102.0,102.0,13.3,1505.2,325.3,-0.8,1.8,2471.487,13.28,0.047,273.6
2023-03-17T05:10:03,42.805,6.029,-0.042,-0.023,-0.059,101.0,101.0,102.0,13.4,1505.2,318.5,-0.8,1.8,2471.496,13.28,0.047,241.3
2023-03-17T05:13:03,42.805,6.029,-0.019,-0.011,-0.017,102.0,102.0,102.0,13.4,1505.2,338.5,-0.8,1.8,2471.471,13.28,0.021,239.9
2023-03-17T05:16:03,42.805,6.029,-0.065,-0.01,-0.05,102.0,102.0,102.0,13.4,1505.2,324.1,-0.8,1.8,2471.505,13.28,0.065,261.3
2023-03-17T05:19:03,42.805,6.029,-0.079,0.017,-0.056,103.0,99.0,102.0,13.4,1505.2,337.3,-0.8,1.8,2471.443,13.28,0.08,282.1
2023-03-17T05:22:03,42.805,6.029,-0.055,0.029,-0.039,103.0,101.0,101.0,13.4,1505.2,339.9,-0.7,1.8,2471.457,13.28,0.062,297.8
2023-03-17T05:25:03,42.805,6.029,-0.037,0.001,-0.018,102.0,102.0,102.0,13.4,1505.2,332.6,-0.8,1.8,2471.438,13.28,0.037,271.5
2023-03-17T05:28:03,42.805,6.029,-0.06,-0.007,-0.053,102.0,102.0,101.0,13.3,1505.2,317.7,-0.7,1.8,2471.441,13.28,0.06,263.3
2023-03-17T05:31:03,42.805,6.029,-0.042,-0.01,-0.065,103.0,101.0,103.0,13.3,1505.2,330.6,-0.8,1.8,2471.45,13.29,0.043,256.6
2023-03-17T05:34:03,42.805,6.029,-0.029,-0.02,-0.05,102.0,102.0,102.0,13.4,1505.2,336.2,-0.8,1.8,2471.428,13.29,0.035,235.4
2023-03-17T05:37:03,42.805,6.029,-0.073,-0.017,-0.046,102.0,101.0,103.0,13.4,1505.2,316.9,-0.8,1.8,2471.433,13.29,0.074,256.9
2023-03-17T05:40:03,42.805,6.029,-0.037,0.0,-0.064,102.0,102.0,102.0,13.4,1505.2,330.6,-0.7,1.8,2471.448,13.29,0.037,270.0
2023-03-17T05:43:03,42.805,6.029,-0.041,-0.01,-0.027,101.0,101.0,103.0,13.3,1505.2,320.0,-0.8,1.8,2471.408,13.29,0.042,256.3
2023-03-17T05:46:03,42.805,6.029,-0.013,-0.042,-0.042,102.0,103.0,102.0,13.4,1505.2,320.0,-0.8,1.8,2471.473,13.29,0.043,197.2
2023-03-17T05:49:03,42.805,6.029,-0.017,-0.021,-0.073,102.0,100.0,103.0,13.4,1505.2,328.6,-0.7,1.8,2471.431,13.29,0.027,219.0
2023-03-17T05:52:03,42.805,6.029,-0.025,0.01,-0.033,103.0,101.0,102.0,13.4,1505.2,334.7,-0.8,1.8,2471.437,13.29,0.026,291.8
2023-03-17T05:55:03,42.805,6.029,-0.053,0.013,-0.042,102.0,101.0,101.0,13.4,1505.2,332.9,-0.8,1.8,2471.435,13.29,0.054,283.8
2023-03-17T05:58:03,42.805,6.029,-0.049,-0.022,-0.058,103.0,102.0,102.0,13.4,1505.2,338.9,-0.8,1.9,2471.454,13.29,0.053,245.8
2023-03-17T06:04:03,42.805,6.029,-0.057,-0.001,-0.078,103.0,101.0,102.0,13.4,1505.2,324.6,-0.8,1.8,2471.485,13.28,0.057,269.0
2023-03-17T06:07:03,42.805,6.029,-0.036,0.024,-0.027,103.0,102.0,102.0,13.4,1505.2,339.9,-0.8,1.8,2471.468,13.28,0.043,303.7
2023-03-17T06:10:03,42.805,6.029,-0.067,0.024,-0.041,104.0,101.0,101.0,13.4,1505.2,336.4,-0.7,1.8,2471.471,13.28,0.071,289.7
2023-03-17T06:13:03,42.805,6.029,-0.027,0.014,-0.021,104.0,103.0,101.0,13.4,1505.2,337.0,-0.8,1.9,2471.504,13.28,0.03,297.4
2023-03-17T06:16:03,42.805,6.029,-0.056,-0.004,-0.048,102.0,100.0,103.0,13.4,1505.2,318.8,-0.8,1.8,2471.438,13.28,0.056,265.9
2023-03-17T06:19:03,42.805,6.029,-0.037,0.019,-0.024,101.0,103.0,102.0,13.4,1505.2,334.3,-0.8,1.8,2471.449,13.29,0.041,297.2
2023-03-17T06:22:03,42.805,6.029,-0.052,0.022,-0.052,102.0,102.0,101.0,13.3,1505.2,340.9,-0.8,1.8,2471.439,13.28,0.056,292.9
2023-03-17T06:25:03,42.805,6.029,-0.058,0.017,-0.038,102.0,102.0,103.0,13.3,1505.2,327.1,-0.7,1.8,2471.467,13.29,0.06,286.3
2023-03-17T06:28:03,42.805,6.029,-0.043,0.033,-0.016,102.0,101.0,103.0,13.3,1505.2,338.3,-0.8,1.8,2471.413,13.29,0.054,307.5
2023-03-17T06:31:03,42.805,6.029,-0.05,0.048,0.011,103.0,100.0,103.0,13.4,1505.2,332.9,-0.8,1.8,2471.467,13.29,0.069,313.8
2023-03-17T06:34:03,42.805,6.029,-0.071,0.014,-0.031,105.0,103.0,102.0,13.4,1505.2,330.1,-0.8,1.8,2471.455,13.29,0.072,281.2
2023-03-17T06:37:03,42.805,6.029,-0.063,0.007,-0.051,102.0,102.0,103.0,13.4,1505.2,329.7,-0.8,1.8,2471.389,13.29,0.063,276.3
2023-03-17T06:40:03,42.805,6.029,-0.046,-0.005,-0.064,102.0,101.0,103.0,13.4,1505.2,334.7,-0.8,1.8,2471.448,13.29,0.046,263.8
2023-03-17T06:43:03,42.805,6.029,-0.06,0.011,-0.042,101.0,102.0,102.0,13.3,1505.2,339.9,-0.7,1.9,2471.433,13.29,0.06,280.4
2023-03-17T06:46:03,42.805,6.029,-0.055,-0.001,-0.027,102.0,102.0,101.0,13.3,1505.2,319.4,-0.8,1.8,2471.409,13.29,0.055,269.0
2023-03-17T06:49:03,42.805,6.029,-0.031,0.008,-0.011,102.0,103.0,102.0,13.4,1505.2,326.0,-0.8,1.8,2471.383,13.29,0.032,284.5
2023-03-17T06:52:03,42.805,6.029,-0.065,-0.001,-0.047,102.0,101.0,102.0,13.4,1505.2,323.5,-0.8,1.8,2471.439,13.29,0.065,269.1
2023-03-17T06:55:03,42.805,6.029,-0.043,0.0,-0.042,102.0,101.0,102.0,13.3,1505.2,318.3,-0.8,1.8,2471.405,13.29,0.043,270.0
2023-03-17T06:58:03,42.805,6.029,-0.055,0.012,-0.049,102.0,103.0,102.0,13.4,1505.2,328.8,-0.8,1.8,2471.397,13.29,0.056,282.3
2023-03-17T07:04:03,42.805,6.029,-0.035,-0.018,-0.042,101.0,104.0,102.0,13.4,1505.2,323.8,-0.7,1.8,2471.512,13.28,0.039,242.8
2023-03-17T07:07:03,42.805,6.029,-0.048,0.003,-0.048,103.0,101.0,102.0,13.4,1505.2,323.6,-0.8,1.8,2471.469,13.28,0.048,273.6
2023-03-17T07:10:03,42.805,6.029,-0.043,0.027,-0.011,100.0,102.0,104.0,13.3,1505.2,335.7,-0.8,1.8,2471.477,13.28,0.05,302.1
2023-03-17T07:13:03,42.805,6.029,-0.091,0.007,-0.052,103.0,103.0,102.0,13.3,1505.2,317.8,-0.7,1.8,2471.449,13.28,0.091,274.4
2023-03-17T07:16:03,42.805,6.029,-0.046,0.004,-0.031,101.0,102.0,103.0,13.4,1505.2,324.8,-0.8,1.8,2471.474,13.29,0.046,275.0
2023-03-17T07:19:03,42.805,6.029,-0.046,0.0,-0.052,101.0,102.0,104.0,13.3,1505.2,340.2,-0.8,1.8,2471.417,13.28,0.046,270.0
2023-03-17T07:22:03,42.805,6.029,-0.056,0.008,-0.035,100.0,103.0,103.0,13.4,1505.2,321.9,-0.8,1.8,2471.435,13.29,0.056,278.1
2023-03-17T07:25:03,42.805,6.029,-0.031,0.0,-0.055,102.0,101.0,103.0,13.3,1505.2,332.9,-0.7,1.8,2471.4,13.29,0.03,270.0
2023-03-17T07:28:03,42.805,6.029,-0.041,-0.008,-0.046,103.0,101.0,102.0,13.4,1505.2,325.2,-0.7,1.8,2471.416,13.29,0.041,259.0
2023-03-17T07:31:03,42.805,6.029,-0.054,0.012,-0.015,103.0,101.0,102.0,13.4,1505.2,320.0,-0.8,1.8,2471.415,13.29,0.055,282.5
2023-03-17T07:34:03,42.805,6.029,-0.074,-0.014,-0.067,102.0,102.0,102.0,13.4,1505.2,327.4,-0.8,1.8,2471.407,13.29,0.075,259.3
2023-03-17T07:37:03,42.805,6.029,-0.054,0.016,-0.029,102.0,102.0,103.0,13.4,1505.2,340.2,-0.8,1.8,2471.437,13.29,0.056,286.5
2023-03-17T07:40:03,42.805,6.029,-0.043,0.016,-0.039,102.0,101.0,103.0,13.3,1505.2,322.9,-0.8,1.9,2471.397,13.29,0.045,290.4
2023-03-17T07:43:03,42.805,6.029,-0.072,0.004,-0.063,101.0,101.0,103.0,13.3,1505.2,318.3,-0.8,1.8,2471.427,13.29,0.072,273.2
2023-03-17T07:46:03,42.805,6.029,-0.054,0.014,-0.018,101.0,102.0,102.0,13.4,1505.2,318.5,-0.8,1.8,2471.371,13.29,0.055,284.5
2023-03-17T07:49:03,42.805,6.029,-0.057,0.024,0.0,103.0,103.0,102.0,13.4,1505.2,322.7,-0.8,1.8,2471.391,13.29,0.061,292.8
2023-03-17T07:52:03,42.805,6.029,-0.048,0.016,-0.014,102.0,103.0,103.0,13.4,1505.2,324.3,-0.7,1.8,2471.379,13.29,0.05,288.4
2023-03-17T07:55:03,42.805,6.029,-0.042,0.005,-0.04,102.0,103.0,102.0,13.4,1505.2,327.9,-0.8,1.8,2471.434,13.29,0.042,276.8
2023-03-17T07:58:03,42.805,6.029,-0.064,0.02,-0.029,102.0,101.0,101.0,13.4,1505.2,322.3,-0.8,1.8,2471.42,13.29,0.067,287.4
2023-03-17T08:04:03,42.805,6.029,-0.045,-0.001,-0.037,102.0,101.0,102.0,13.4,1505.2,327.7,-0.7,1.8,2471.391,13.28,0.045,268.7
2023-03-17T08:07:03,42.805,6.029,-0.075,0.004,-0.055,101.0,101.0,102.0,13.4,1505.2,326.5,-0.8,1.8,2471.415,13.28,0.075,273.0
2023-03-17T08:10:03,42.805,6.029,-0.038,-0.01,-0.067,102.0,101.0,102.0,13.4,1505.2,327.8,-0.8,1.8,2471.422,13.28,0.039,255.3
2023-03-17T08:13:03,42.805,6.029,-0.044,0.002,-0.046,102.0,101.0,103.0,13.4,1505.2,339.1,-0.7,1.8,2471.408,13.28,0.044,272.6
2023-03-17T08:16:03,42.805,6.029,-0.059,0.014,-0.028,102.0,101.0,102.0,13.4,1505.2,331.5,-0.7,1.8,2471.37,13.28,0.06,283.3
2023-03-17T08:19:03,42.805,6.029,-0.04,0.001,-0.026,102.0,102.0,103.0,13.4,1505.2,329.5,-0.8,1.8,2471.379,13.29,0.04,271.4
2023-03-17T08:22:03,42.805,6.029,-0.064,0.019,-0.053,104.0,101.0,103.0,13.4,1505.2,333.4,-0.8,1.8,2471.398,13.29,0.066,286.5
2023-03-17T08:25:03,42.805,6.029,-0.044,-0.004,-0.041,102.0,102.0,102.0,13.4,1505.2,323.9,-0.7,1.8,2471.37,13.29,0.044,264.8
2023-03-17T08:28:03,42.805,6.029,-0.041,-0.001,-0.05,101.0,101.0,103.0,13.3,1505.2,325.8,-0.8,1.8,2471.38,13.29,0.041,268.6
2023-03-17T08:31:03,42.805,6.029,-0.057,-0.008,-0.066,101.0,102.0,102.0,13.3,1505.2,318.3,-0.8,1.8,2471.324,13.29,0.057,262.0
2023-03-17T08:34:03,42.805,6.029,-0.056,0.008,-0.042,101.0,102.0,102.0,13.4,1505.2,335.3,-0.8,1.8,2471.372,13.29,0.056,278.1
2023-03-17T08:37:03,42.805,6.029,-0.054,0.014,-0.024,101.0,101.0,102.0,13.4,1505.2,323.4,-0.7,1.8,2471.391,13.29,0.055,284.5
2023-03-17T08:40:03,42.805,6.029,-0.062,0.012,-0.025,102.0,101.0,103.0,13.4,1505.2,332.1,-0.7,1.8,2471.382,13.29,0.063,281.0
2023-03-17T08:43:03,42.805,6.029,-0.041,0.017,0.0,102.0,100.0,102.0,13.4,1505.2,328.3,-0.8,1.9,2471.38,13.29,0.044,292.5
2023-03-17T08:46:03,42.805,6.029,-0.023,-0.003,-0.018,102.0,100.0,103.0,13.4,1505.2,337.5,-0.8,1.8,2471.31,13.29,0.023,262.6
2023-03-17T08:49:03,42.805,6.029,-0.065,-0.012,-0.069,102.0,102.0,102.0,13.4,1505.2,316.2,-0.8,1.8,2471.347,13.29,0.066,259.5
2023-03-17T08:52:03,42.805,6.029,-0.052,-0.005,-0.049,102.0,102.0,101.0,13.4,1505.2,327.8,-0.8,1.8,2471.362,13.29,0.052,264.5
2023-03-17T08:55:03,42.805,6.029,-0.057,0.004,-0.058,102.0,101.0,102.0,13.4,1505.2,337.2,-0.8,1.8,2471.355,13.29,0.057,274.0
2023-03-17T08:58:03,42.805,6.029,-0.053,0.029,-0.025,101.0,100.0,103.0,13.3,1505.2,337.0,-0.8,1.8,2471.324,13.29,0.06,298.7
2023-03-17T09:04:03,42.805,6.029,-0.055,0.006,-0.046,101.0,101.0,102.0,13.4,1505.2,334.4,-0.8,1.8,2471.423,13.28,0.055,276.2
2023-03-17T09:07:03,42.805,6.029,-0.054,0.014,-0.05,101.0,100.0,102.0,13.3,1505.2,337.4,-0.7,1.8,2471.42,13.28,0.055,284.5
2023-03-17T09:10:03,42.805,6.029,-0.065,0.007,-0.05,101.0,100.0,102.0,13.4,1505.2,333.4,-0.8,1.8,2471.377,13.28,0.065,276.1
2023-03-17T09:13:03,42.805,6.029,-0.042,0.011,-0.03,101.0,101.0,102.0,13.4,1505.2,332.4,-0.8,1.8,2471.392,13.28,0.043,284.7
2023-03-17T09:16:03,42.805,6.029,-0.037,0.009,-0.008,101.0,101.0,103.0,13.4,1505.2,323.6,-0.7,1.8,2471.379,13.28,0.038,283.7
2023-03-17T09:19:03,42.805,6.029,-0.059,-0.019,-0.032,101.0,101.0,101.0,13.4,1505.2,319.8,-0.8,1.8,2471.352,13.29,0.061,252.2
2023-03-17T09:22:03,42.805,6.029,-0.052,0.004,-0.026,101.0,102.0,101.0,13.4,1505.2,333.8,-0.8,1.8,2471.34,13.29,0.052,274.4
2023-03-17T09:25:03,42.805,6.029,-0.035,0.01,-0.027,102.0,101.0,102.0,13.4,1505.2,330.4,-0.8,1.8,2471.393,13.29,0.036,285.9
2023-03-17T09:28:03,42.805,6.029,-0.037,0.005,-0.035,102.0,102.0,102.0,13.4,1505.2,324.3,-0.8,1.8,2471.381,13.29,0.037,277.7
2023-03-17T09:31:03,42.805,6.029,-0.042,0.005,-0.032,102.0,102.0,102.0,13.4,1505.2,327.7,-0.7,1.8,2471.319,13.29,0.042,276.8
2023-03-17T09:34:03,42.805,6.029,-0.046,0.021,0.0,102.0,101.0,102.0,13.3,1505.2,339.5,-0.8,1.8,2471.325,13.29,0.05,294.5
2023-03-17T09:37:03,42.805,6.029,-0.055,0.005,-0.044,101.0,101.0,102.0,13.4,1505.2,329.0,-0.7,1.8,2471.32,13.29,0.055,275.2
2023-03-17T09:40:03,42.805,6.029,-0.028,-0.002,0.0,101.0,102.0,102.0,13.4,1505.2,327.9,-0.7,1.8,2471.363,13.29,0.028,265.9
2023-03-17T09:43:03,42.805,6.029,-0.054,0.003,-0.007,102.0,102.0,102.0,13.4,1505.2,323.1,-0.8,1.8,2471.339,13.29,0.054,273.2
2023-03-17T09:46:03,42.805,6.029,-0.057,0.014,-0.035,102.0,101.0,102.0,13.3,1505.2,323.9,-0.8,1.8,2471.373,13.29,0.058,283.8
2023-03-17T09:49:03,42.805,6.029,-0.06,-0.004,-0.037,103.0,102.0,102.0,13.4,1505.2,330.1,-0.8,1.8,2471.348,13.29,0.06,266.2
2023-03-17T09:52:03,42.805,6.029,-0.047,-0.006,-0.045,101.0,101.0,102.0,13.3,1505.2,324.8,-0.7,1.8,2471.346,13.29,0.047,262.7